When you browse on this site, cookies collect data to enhance your experience and personalize the content and advertising you see.
Visit our Privacy Policy to learn more. By continuing to use the site, you agree to this use of cookies and data.
  • In Hungary
  • List of Countries
  • For 7 days
  • Water Temperature
  • Satellite Maps
  • Weather Map
  • News
  • Weather Widgets
  • user-avatar
    Login

    Hourly Weather Pola de Siero

    Today, 22 January, Tuesday

    Time Temperature Precipitation Wind Pressure Humidity
    00:00 +3°C° 0 mm 2 mps 741 mmHg 83%
    01:00 +4°C° 0 mm 2 mps 740 mmHg 82%
    02:00 +4°C° 0 mm 2 mps 740 mmHg 80%
    03:00 +4°C° 0 mm 2 mps 739 mmHg 79%
    04:00 +4°C° 0.1 mm 2 mps 738 mmHg 79%
    05:00 +5°C° 0.1 mm 2 mps 738 mmHg 79%
    06:00 +4°C° 0.1 mm 3 mps 737 mmHg 79%
    07:00 +4°C° 0.7 mm 3 mps 737 mmHg 82%
    08:00 +4°C° 0.7 mm 3 mps 736 mmHg 85%
    09:00 +5°C° 0.7 mm 3 mps 736 mmHg 88%
    10:00 +5°C° 3.8 mm 3 mps 736 mmHg 91%
    11:00 +5°C° 3.8 mm 3 mps 736 mmHg 93%
    12:00 +6°C° 3.8 mm 2 mps 736 mmHg 96%
    13:00 +6°C° 2.6 mm 2 mps 736 mmHg 95%
    14:00 +5°C° 2.6 mm 3 mps 735 mmHg 95%
    15:00 +5°C° 2.6 mm 3 mps 735 mmHg 95%
    16:00 +5°C° 2.8 mm 3 mps 735 mmHg 96%
    17:00 +5°C° 2.8 mm 3 mps 735 mmHg 96%
    18:00 +5°C° 2.8 mm 3 mps 735 mmHg 96%
    19:00 +5°C° 3.1 mm 3 mps 735 mmHg 96%
    20:00 +7°C° 3.1 mm 3 mps 735 mmHg 96%
    21:00 +7°C° 3.1 mm 3 mps 735 mmHg 96%
    22:00 +7°C° 2.2 mm 3 mps 734 mmHg 96%
    23:00 +7°C° 2.2 mm 3 mps 734 mmHg 96%

    Tomorrow, 23 January, Wednesday

    Time Temperature Precipitation Wind Pressure Humidity
    00:00 +7°C° 2.2 mm 3 mps 734 mmHg 96%
    01:00 +6°C° 1.7 mm 4 mps 733 mmHg 96%
    02:00 +6°C° 1.7 mm 4 mps 732 mmHg 96%
    03:00 +7°C° 1.7 mm 4 mps 732 mmHg 95%
    04:00 +7°C° 3.3 mm 5 mps 732 mmHg 95%
    05:00 +8°C° 3.3 mm 5 mps 732 mmHg 95%
    06:00 +8°C° 3.3 mm 5 mps 732 mmHg 96%
    07:00 +8°C° 3.8 mm 5 mps 732 mmHg 96%
    08:00 +8°C° 3.8 mm 5 mps 732 mmHg 96%
    09:00 +8°C° 3.8 mm 4 mps 733 mmHg 96%
    10:00 +8°C° 4.1 mm 4 mps 733 mmHg 96%
    11:00 +8°C° 4.1 mm 4 mps 733 mmHg 97%
    12:00 +8°C° 4.1 mm 4 mps 733 mmHg 97%
    13:00 +8°C° 3.8 mm 4 mps 733 mmHg 97%
    14:00 +8°C° 3.8 mm 4 mps 733 mmHg 97%
    15:00 +8°C° 3.8 mm 4 mps 733 mmHg 96%
    16:00 +8°C° 2.5 mm 4 mps 733 mmHg 96%
    17:00 +8°C° 2.5 mm 4 mps 734 mmHg 96%
    18:00 +8°C° 2.5 mm 4 mps 734 mmHg 96%
    19:00 +9°C° 2.1 mm 3 mps 735 mmHg 97%
    20:00 +8°C° 2.1 mm 3 mps 735 mmHg 97%
    21:00 +8°C° 2.1 mm 3 mps 735 mmHg 97%
    22:00 +8°C° 1.7 mm 2 mps 735 mmHg 97%
    23:00 +8°C° 1.7 mm 2 mps 735 mmHg 98%

    Day after tomorrow, 24 January, Thursday

    Time Temperature Precipitation Wind Pressure Humidity
    00:00 +8°C° 1.7 mm 2 mps 735 mmHg 98%
    01:00 +8°C° 0.4 mm 2 mps 736 mmHg 98%
    02:00 +9°C° 0.4 mm 1 mps 736 mmHg 98%
    03:00 +8°C° 0.4 mm 1 mps 736 mmHg 98%
    04:00 +8°C° 0.3 mm 1 mps 736 mmHg 98%
    05:00 +9°C° 0.3 mm 1 mps 736 mmHg 97%
    06:00 +9°C° 0.3 mm 1 mps 736 mmHg 97%
    07:00 +9°C° 0.4 mm 1 mps 736 mmHg 97%
    08:00 +8°C° 0.4 mm 2 mps 736 mmHg 97%
    09:00 +8°C° 0.4 mm 2 mps 737 mmHg 97%
    10:00 +8°C° 0.1 mm 2 mps 737 mmHg 96%
    11:00 +9°C° 0.1 mm 2 mps 737 mmHg 96%
    12:00 +9°C° 0.1 mm 2 mps 737 mmHg 95%
    13:00 +9°C° 0.4 mm 2 mps 737 mmHg 96%
    14:00 +9°C° 0.4 mm 2 mps 737 mmHg 97%
    15:00 +10°C° 0.4 mm 2 mps 737 mmHg 98%
    16:00 +10°C° 0.5 mm 2 mps 738 mmHg 98%
    17:00 +10°C° 0.5 mm 2 mps 738 mmHg 98%
    18:00 +10°C° 0.5 mm 2 mps 738 mmHg 98%
    19:00 +10°C° 0.4 mm 2 mps 739 mmHg 98%
    20:00 +10°C° 0.4 mm 2 mps 739 mmHg 98%
    21:00 +10°C° 0.4 mm 2 mps 740 mmHg 98%
    22:00 +10°C° 0.4 mm 2 mps 740 mmHg 98%
    23:00 +9°C° 0.4 mm 2 mps 740 mmHg 98%

    25 January, Friday

    Time Temperature Precipitation Wind Pressure Humidity
    00:00 +10°C° 0.4 mm 1 mps 740 mmHg 98%
    01:00 +10°C° 0.2 mm 1 mps 740 mmHg 98%
    02:00 +10°C° 0.2 mm 1 mps 740 mmHg 98%
    03:00 +10°C° 0.2 mm 1 mps 741 mmHg 98%
    04:00 +10°C° 0.3 mm 1 mps 741 mmHg 98%
    05:00 +10°C° 0.3 mm 1 mps 741 mmHg 98%
    06:00 +10°C° 0.3 mm 1 mps 741 mmHg 98%
    07:00 +10°C° 0.3 mm 1 mps 741 mmHg 97%
    08:00 +10°C° 0.3 mm 1 mps 742 mmHg 97%
    09:00 +10°C° 0.3 mm 1 mps 742 mmHg 97%
    10:00 +10°C° 0.2 mm 1 mps 742 mmHg 95%
    11:00 +11°C° 0.2 mm 1 mps 742 mmHg 93%
    12:00 +11°C° 0.2 mm 1 mps 742 mmHg 92%
    13:00 +11°C° 0.1 mm 1 mps 742 mmHg 91%
    14:00 +11°C° 0.1 mm 1 mps 742 mmHg 90%
    15:00 +11°C° 0.1 mm 1 mps 741 mmHg 89%
    16:00 +10°C° 0.1 mm 1 mps 741 mmHg 91%
    17:00 +9°C° 0.1 mm 1 mps 741 mmHg 93%
    18:00 +8°C° 0.1 mm 1 mps 741 mmHg 95%
    19:00 +8°C° 0 mm 1 mps 741 mmHg 95%
    20:00 +7°C° 0 mm 1 mps 742 mmHg 95%
    21:00 +7°C° 0 mm 1 mps 742 mmHg 95%
    22:00 +7°C° 0 mm 1 mps 741 mmHg 94%
    23:00 +6°C° 0 mm 1 mps 741 mmHg 93%

    26 January, Saturday

    Time Temperature Precipitation Wind Pressure Humidity
    00:00 +5°C° 0 mm 2 mps 741 mmHg 92%
    01:00 +5°C° 0 mm 2 mps 740 mmHg 90%
    02:00 +5°C° 0 mm 2 mps 739 mmHg 89%
    03:00 +4°C° 0 mm 2 mps 739 mmHg 88%
    04:00 +4°C° 0 mm 2 mps 738 mmHg 87%
    05:00 +4°C° 0 mm 2 mps 738 mmHg 87%
    06:00 +4°C° 0 mm 2 mps 738 mmHg 86%
    07:00 +5°C° 0 mm 2 mps 738 mmHg 84%
    08:00 +5°C° 0 mm 2 mps 737 mmHg 82%
    09:00 +5°C° 0 mm 2 mps 737 mmHg 79%
    10:00 +7°C° 0.3 mm 3 mps 737 mmHg 81%
    11:00 +8°C° 0.3 mm 3 mps 737 mmHg 83%
    12:00 +8°C° 0.3 mm 4 mps 737 mmHg 85%
    13:00 +7°C° 1.6 mm 4 mps 737 mmHg 87%
    14:00 +6°C° 1.6 mm 4 mps 737 mmHg 89%
    15:00 +6°C° 1.6 mm 4 mps 737 mmHg 91%
    16:00 +5°C° 0.7 mm 3 mps 737 mmHg 91%
    17:00 +5°C° 0.7 mm 3 mps 738 mmHg 91%
    18:00 +5°C° 0.7 mm 3 mps 738 mmHg 91%
    19:00 +4°C° 1 mm 3 mps 738 mmHg 91%
    20:00 +4°C° 1 mm 3 mps 739 mmHg 90%
    21:00 +4°C° 1 mm 3 mps 739 mmHg 90%
    22:00 +4°C° 1.1 mm 3 mps 739 mmHg 90%
    23:00 +4°C° 1.1 mm 3 mps 739 mmHg 90%

    27 January, Sunday

    Time Temperature Precipitation Wind Pressure Humidity
    00:00 +4°C° 1.1 mm 3 mps 739 mmHg 90%
    01:00 +4°C° 1.4 mm 3 mps 739 mmHg 90%
    02:00 +4°C° 1.4 mm 3 mps 739 mmHg 91%
    03:00 +4°C° 1.4 mm 3 mps 739 mmHg 91%
    04:00 +4°C° 1.2 mm 3 mps 739 mmHg 91%
    05:00 +4°C° 1.2 mm 3 mps 739 mmHg 92%
    06:00 +4°C° 1.2 mm 3 mps 739 mmHg 92%
    07:00 +4°C° 1.3 mm 3 mps 739 mmHg 93%
    08:00 +4°C° 1.3 mm 3 mps 739 mmHg 93%
    09:00 +4°C° 1.3 mm 3 mps 739 mmHg 94%
    10:00 +5°C° 2.1 mm 2 mps 739 mmHg 94%
    11:00 +5°C° 2.1 mm 2 mps 739 mmHg 95%
    12:00 +5°C° 2.1 mm 2 mps 738 mmHg 95%
    13:00 +6°C° 2.9 mm 2 mps 738 mmHg 96%
    14:00 +5°C° 2.9 mm 3 mps 737 mmHg 96%
    15:00 +7°C° 2.9 mm 3 mps 737 mmHg 96%
    16:00 +6°C° 3.5 mm 4 mps 736 mmHg 96%
    17:00 +6°C° 3.5 mm 4 mps 736 mmHg 96%
    18:00 +7°C° 3.5 mm 5 mps 736 mmHg 95%
    19:00 +7°C° 2.2 mm 5 mps 736 mmHg 95%
    20:00 +7°C° 2.2 mm 4 mps 737 mmHg 95%
    21:00 +7°C° 2.2 mm 4 mps 737 mmHg 95%
    22:00 +7°C° 1.6 mm 4 mps 737 mmHg 95%
    23:00 +7°C° 1.6 mm 4 mps 737 mmHg 95%
    Show more